This is the latest recevied weather packets stored in our database for station/object K0CVS. If no packets are shown the sender has not sent any weather packets the latest 1 day(s).
| Time | Temp. | Humidity | Pressure | Rain* | Wind** | Luminosity | Snow |
|---|---|---|---|---|---|---|---|
| 1777983061 | 9.44° C | 80% | 1010.3 hPa | 0 mm | 0 m/s | 2 W/m² | - |
| 1777982757 | 8.89° C | 79% | 1009.8 hPa | 0 mm | 0 m/s | 5 W/m² | - |
| 1777982453 | 9.44° C | 82% | 1009.8 hPa | 0 mm | 0 m/s | 4 W/m² | - |
| 1777982148 | 9.44° C | 80% | 1009.8 hPa | 0 mm | 0 m/s | 5 W/m² | - |
| 1777981846 | 8.89° C | 80% | 1009.6 hPa | 0 mm | 0 m/s | 4 W/m² | - |
| 1777981542 | 9.44° C | 83% | 1009.6 hPa | 0 mm | 0 m/s | 2 W/m² | - |
| 1777981239 | 9.44° C | 81% | 1009.7 hPa | 0 mm | 0 m/s | 2 W/m² | - |
| 1777980935 | 9.44° C | 77% | 1009.7 hPa | 0 mm | 0.45 m/s, 193° | 2 W/m² | - |
| 1777980632 | 9.44° C | 79% | 1009.7 hPa | 0 mm | 0 m/s | 1 W/m² | - |
| 1777980328 | 10° C | 76% | 1009.7 hPa | 0 mm | 0 m/s | 0 W/m² | - |
| 1777980026 | 10° C | 74% | 1009.5 hPa | 0 mm | 0 m/s | 0 W/m² | - |
| 1777979720 | 10° C | 73% | 1009.6 hPa | 0 mm | 0 m/s | 0 W/m² | - |
| 1777979416 | 10° C | 74% | 1009.7 hPa | 0 mm | 1.34 m/s, 357° | 0 W/m² | - |
| 1777979113 | 10° C | 74% | 1009.4 hPa | 1.27 mm | 0 m/s | 0 W/m² | - |
| 1777978810 | 10° C | 75% | 1009.5 hPa | 1.27 mm | 0 m/s | 0 W/m² | - |
| 1777978506 | 10° C | 78% | 1009.3 hPa | 0 mm | 0 m/s | 0 W/m² | - |
| 1777978202 | 10° C | 77% | 1009.1 hPa | 0 mm | 0 m/s | 0 W/m² | - |
| 1777977899 | 10° C | 77% | 1009.4 hPa | 0 mm | 0 m/s | 0 W/m² | - |
| 1777977596 | 10° C | 77% | 1009.1 hPa | 0 mm | 0 m/s | 0 W/m² | - |
| 1777977293 | 10° C | 78% | 1009.2 hPa | 0 mm | 0 m/s | 0 W/m² | - |
| 1777976990 | 10° C | 79% | 1009.2 hPa | 0 mm | 0 m/s | 0 W/m² | - |
| 1777976687 | 10° C | 80% | 1009.4 hPa | 0 mm | 0 m/s | 0 W/m² | - |
| 1777976385 | 10° C | 80% | 1009.5 hPa | 0 mm | 0.45 m/s, 265° | 0 W/m² | - |
| 1777976083 | 10° C | 80% | 1009.3 hPa | 0 mm | 0.45 m/s, 40° | 0 W/m² | - |
| 1777975780 | 9.44° C | 81% | 1009.5 hPa | 0 mm | 0 m/s | 0 W/m² | - |
* Rain latest hour (hover to see other rain measurements)
** Current wind speed in m/s (hover to see current wind gust speed)